Location: Oshawa
(43.9000°N, 78.8670°W)
Time: 23:02:11
(UTC-04:00)

Tiangong 2 - Visible Passes

Search period start: 20 May 2018 00:00
Search period end: 30 May 2018 00:00
Orbit: 382 x 386 km, 42.8° (Epoch: 20 May)

Date Brightness Start Highest point End Pass type
(mag) Time Alt. Az. Time Alt. Az. Time Alt. Az.
21 May 2.8 21:31:04 10° S 21:33:03 16° SSE 21:34:27 12° ESE visible
21 May 3.6 23:06:16 10° WSW 23:06:44 13° WSW 23:06:44 13° WSW visible
22 May 1.6 22:06:44 10° SW 22:09:38 36° SSE 22:10:49 25° ESE visible
22 May 4.0 23:43:03 10° W 23:43:04 10° W 23:43:04 10° W visible
23 May 0.9 22:43:17 10° WSW 22:46:25 64° S 22:46:39 61° SE visible
24 May 1.3 21:43:36 10° WSW 21:46:40 50° SSE 21:49:44 10° E visible
24 May 2.3 23:20:08 10° W 23:22:07 34° W 23:22:07 34° W visible
25 May 0.9 22:20:21 10° W 22:23:29 73° S 22:25:08 25° E visible
25 May 3.9 23:57:03 10° W 23:57:20 12° W 23:57:20 12° W visible
26 May 1.1 21:20:35 10° WSW 21:23:42 64° S 21:26:49 10° E visible
26 May 1.0 22:57:13 10° W 23:00:13 63° SSW 23:00:13 63° SSW visible
27 May 1.0 21:57:24 10° W 22:00:33 72° S 22:03:02 15° E visible
27 May 3.3 23:34:10 10° W 23:35:13 18° WSW 23:35:13 18° WSW visible
28 May 1.3 22:34:16 10° W 22:37:20 50° SSW 22:37:58 41° SSE visible
29 May 1.1 21:34:25 10° W 21:37:33 64° S 21:40:41 10° ESE visible
29 May 3.0 23:11:22 10° W 23:12:53 20° WSW 23:12:53 20° WSW visible
